[Iaude] MPEC E106: 2024 EG2 [a=1.87,e=0.65,i=7.4,H=25.7]

mpec at cfa.harvard.edu mpec at cfa.harvard.edu
Thu Mar 7 06:47:58 EST 2024


M.P.E.C. 2024-E106                                Issued 2024 March 7, 11:46 UT

     The Minor Planet Electronic Circulars contain information on unusual
         minor planets, routine data on comets and natural satellites,
         and occasional editorial announcements.  They are published
    on behalf of Division F of the International Astronomical Union by the
          Minor Planet Center, Smithsonian Astrophysical Observatory,
                          Cambridge, MA 02138, U.S.A.
			  
             Prepared using the Tamkin Foundation Computer Network

                              MPC at CFA.HARVARD.EDU
            URL https://www.minorplanetcenter.net/    ISSN 1523-6714

                                    2024 EG2                                    


Observations:
     K24E02G  C2024 03 02.36340511 32 15.714+13 38 39.19         21.81GVEE106F51
     K24E02G  C2024 03 02.37528311 32 14.920+13 38 35.51         21.64GVEE106F51
     K24E02G  C2024 03 02.38714611 32 14.082+13 38 31.70         21.57GVEE106F51
     K24E02G  C2024 03 06.34894211 27 11.668+12 51 30.53         20.32GVEE106F51
     K24E02G  C2024 03 06.36075111 27 09.580+12 51 16.95         20.27GVEE106F51
     K24E02G* C2024 03 06.37244711 27 07.475+12 51 03.30         20.57wXEE106F51
     K24E02G  C2024 03 06.38419711 27 05.326+12 50 49.46         20.51wXEE106F51
     K24E02G  C2024 03 06.62589911 26 19.370+12 45 15.43         20.22GVEE106F51
     K24E02G  C2024 03 06.62671811 26 19.224+12 45 14.39         20.22GVEE106F51
     K24E02G KC2024 03 06.91101411 25 47.61 +12 37 29.9          19.4 GXEE106958
     K24E02G KB2024 03 06.91497 11 25 46.022+12 37 26.18         20.2 VZEE106C95
     K24E02G KC2024 03 06.91830811 25 46.11 +12 37 19.4          19.4 GXEE106958
     K24E02G KC2024 03 06.92555011 25 44.60 +12 37 07.8          19.6 GXEE106958
     K24E02G KB2024 03 06.93207 11 25 42.535+12 36 59.62         20.0 VZEE106C95
     K24E02G KB2024 03 06.94917 11 25 38.921+12 36 34.16         20.5 VZEE106C95
     K24E02G KB2024 03 06.98257011 25 32.56 +12 35 39.4          19.5 GXEE106I93
     K24E02G KB2024 03 06.98713011 25 31.55 +12 35 32.3          19.9 GXEE106I93
     K24E02G KB2024 03 06.99130511 25 30.66 +12 35 25.9          19.8 GXEE106I93
     K24E02G 1C2024 03 07.31565011 24 30.949+12 26 34.73         19.93GVEE106G96
     K24E02G 1C2024 03 07.32138011 24 29.480+12 26 23.96         20.07GVEE106G96
     K24E02G 1C2024 03 07.32707211 24 28.048+12 26 13.70         19.99GVEE106G96
     K24E02G KC2024 03 07.33780 11 24 25.45 +12 25 55.1          19.9 RVEE106691
     K24E02G KC2024 03 07.34543 11 24 23.51 +12 25 40.4          20.1 RVEE106691
     K24E02G KC2024 03 07.35307 11 24 21.54 +12 25 25.8          20.1 RVEE106691

Observer details:
691 Steward Observatory, Kitt Peak-Spacewatch.  Observer J. V. Scotti.  0.9-m
    f/3 reflector + CCD.
958 Observatoire de Dax.  Observers P. Dupouy, J. B. de Vanssay.  Measurer P.
    Dupouy.  0.43-m f/2.7 Reflector + CCD.
C95 SATINO Remote Observatory, Haute Provence.  Observer D. Husar.  0.30-m
    f/5.8 reflector + CMO.
F51 Pan-STARRS 1, Haleakala.  Observers J. Herman, T. Lowe, P. Minguez, A.
    Schultz, I. Smith.  Measurers K. Chambers, T. de Boer, J. Fairlamb, H.
    Gao, M. Huber, C.-C. Lin, E. Magnier, Y. Ramanjooloo, R. Wainscoat, R.
    Weryk.  1.8-m Ritchey-Chretien + CCD.
G96 Mt. Lemmon Survey.  Observer J. B. Fazekas.  Measurers T. Beuden, V. F.
    Carvajal, D. Fay, J. B. Fazekas, D. C. Fuls, A. R. Gibbs, A. D. Grauer, H.
    Groeller, J. K. Hogan, R. A. Kowalski, S. M. Larson, G. J. Leonard, D.
    Rankin, R. L. Seaman, F. C. Shelly, K. W. Wierzchos.  1.5-m reflector +
    10K CCD.
I93 St Pardon de Conques.  Observer F. Losse.  0.40-m f/3.7 reflector + CCD.

Orbital elements:
2024 EG2                                                 Earth MOID = 0.0036 AU
Epoch 2024 Mar. 31.0 TT = JDT 2460400.5                 Veres                   
M 349.15068              (2000.0)            P               Q                  
n   0.38587105     Peri.  265.04400     -0.25712460     +0.96611684             
a   1.8685637      Node   349.97044     -0.82760688     -0.23215073             
e   0.6544607      Incl.    7.41525     -0.49895269     -0.11280200             
P   2.55           H   25.78          G   0.15           U   8                  
Residuals in seconds of arc
240302 F51  0.1-  0.1-    240306 F51  0.1+  0.1+    240306 I93  0.1-  0.0
240302 F51  0.1+  0.0     240306 958  0.7+  0.5-    240306 I93  0.1+  0.2+
240302 F51  0.1-  0.1+    240306 C95  0.3-  0.6+    240307 G96  0.1+  0.1+
240306 F51  0.1-  0.2-    240306 958  0.2+  0.2-    240307 G96  0.2-  0.1-
240306 F51  0.0   0.1-    240306 958  0.5-  1.1-    240307 G96  0.0   0.2+
240306 F51  0.1+  0.1-    240306 C95  0.2+  0.3-    240307 691  0.1+  0.3+
240306 F51  0.1+  0.0     240306 C95  0.2-  0.4+    240307 691  0.3+  0.0
240306 F51  0.1+  0.1-    240306 I93  0.4+  0.2-    240307 691  0.1+  0.1-

Ephemeris:
2024 EG2                 a,e,i = 1.87, 0.65, 7                   q = 0.6457
Date    TT    R. A. (2000) Decl.     Delta      r    Elong.  Phase     V
2024 02 06    11 29 44.8 +14 07 48   0.4311  1.3693   147.5    22.8    25.7
...
2024 02 21    11 34 22.9 +14 03 54   0.2346  1.2120   160.2    16.1    23.9
...
2024 02 29    11 33 28.0 +13 50 27   0.1385  1.1258   166.6    11.7    22.5
...
2024 03 06    11 27 50.4 +12 58 45   0.06920 1.0605   171.1     8.4    20.7
2024 03 07    11 25 28.0 +12 36 34   0.05783 1.0496   171.8     7.7    20.2
2024 03 08    11 21 55.7 +12 02 59   0.04650 1.0388   172.6     7.1    19.7
...
2024 03 14    00 20 16.4 -20 37 13   0.02199 0.9737    21.0   158.5    27.9
...
2024 03 22    23 47 11.9 -15 47 27   0.1130  0.8889    17.0   160.9    32.1
...
2024 04 06    23 46 17.6 -13 26 41   0.2991  0.7468    27.1   142.4    29.7

M. P. C. Staff               (C) Copyright 2024 MPC           M.P.E.C. 2024-E106





More information about the Iaude mailing list